sat.trackr.live / text

‹ back to catalog

STARLINK-5376

NORAD 56142 · 2023-046BC

PAYLOAD ACTIVE UNKNOWN

§ Identity

Operator
Country
US
Launch date
2023-03-29
Launch site
AFETR
Launch vehicle
Mass (kg)
RCS (m²)

Purposes: comms

External: N2YO · Heavens-Above · Gunter

§ Orbital elements

Epoch: 2026-05-25T04:34:41.777184Z

Period
94.27 min
Inclination
43.0053°
Eccentricity
0.0001172
Mean motion
15.27579221 rev/d
Perigee alt
482.2 km
Apogee alt
483.9 km
Semi-major
6,861.2 km
B*
4.0145e-5
RAAN
74.6379°
Arg perigee
269.4818°
Mean anomaly
90.5900°
Rev number
17,390

§ Raw data

STARLINK-53761 56142U 23046BC  26145.19076131  .00000843  00000+0  40145-4 0  99912 56142  43.0053  74.6379 0001172 269.4818  90.5900 15.27579221173904

JSON: /api/v1/satellites/56142 · /tle

For live sub-satellite position, see the globe view (requires WebGL).

§ Visibility from observer

Set your observer location to see the next 7 days of passes ≥ 10°. The values pass through the URL so the page stays shareable.

No JS? Fill the form by hand. The geolocation button needs JavaScript.